Seosan Air Base

Jump to: basic info | weather | frequencies | runways | comments

Related pages: nearby airports | nearby navaids | notams | map

Basic information (top)

Codes: RKTP RK6U
Location: lon 36.703999, lat 126.486000, elev 39 ft / 12 m msl
Status: small_airport

Weather (top)

Current conditions for A 511 Airport 30nm (56km) ENE (rec'd 2014/12/22 12:58Z):

RKSG 221258Z AUTO 17002KT 10SM CLR M07/M09 A3033 RMK AO2 SLP275 T10721086 $

Airport forecast for A 511 Airport 30nm (56km) ENE (rec'd 2014/05/28 04:09Z):

TAF TAF RKSG 280400Z 2804/2910 25010KT 6000 HZ FEW150 BKN200 QNH2950INS 
      BECMG 2804/2805 27012G18KT 8000 HZ SCT200 QNH2949INS 
      BECMG 2808/2809 27009KT 8000 HZ SCT200 QNH2952INS 
      BECMG 2814/2815 VRB06KT 4800 BR SCT200 QNH2956INS 
      BECMG 2816/2817 VRB03KT 3200 BR SCT200 QNH2962INS 
      BECMG 2901/2902 29009KT 4800 HZ SCT150 BKN200 QNH2968INS TX28/2805Z TN15/2817Z

Frequencies (top)

Verify before use: may be inaccurate or out of date.

APP: 124.6 MHz (HAEMI APP)
ATIS: 130.3 MHz (ATIS)
CLD: 27.58 MHz (CLNC DEL)
DEP: 124.6 MHz (DEP)
GND: 27.58 MHz (GND)
TWR: 126.2 MHz (HAEMI TWR)

Runways (top)

03L/21R: 9,000 x 150 ft (2,743 x 46 m) — paved — lighted

03R/21L: 9,000 x 150 ft (2,743 x 46 m) — paved — lighted

Latest comments (top)

No comments yet for Seosan Air Base

More... (top)

See also NOTAMs and nearby airports and navaids, or visit the Seosan Air Base page at the main OurAirports website..